Location: Camp at the Woods
(43.2055°N, 93.0905°W)
Time: 12:44:39
(UTC+00:00)

Cosmos 1943 Rocket - Pass Details

Date: 05 December 2023
Orbit: 813 x 842 km, 71.0° (Epoch: 20 February)

Event Time Altitude Azimuth Distance (km) Brightness Sun altitude
Exits shadow 12:46:23 - 335° (NNW) 3,303 4.8 -7.7°
Reaches altitude 10° 12:48:41 10° 335° (NNW) 2,419 4.1 -7.3°
Maximum altitude 12:54:14 88° 248° (WSW) 821 2.2 -6.4°
Drops below altitude 10° 12:59:43 10° 158° (SSE) 2,393 5.4 -5.5°
Sets 13:02:07 0° 158° (SSE) 3,320 6.1 -5.1°
